TimeEDT,TemperatureF,Dew PointF,Humidity,Sea Level PressureIn,VisibilityMPH,Wind Direction,Wind SpeedMPH,Gust SpeedMPH,PrecipitationIn,Events,Conditions,WindDirDegrees,DateUTC
12:15 AM,64.2,62.8,95,30.08,7.0,Calm,Calm,-,N/A,,Clear,0,2013-08-02 04:15:00
12:35 AM,63.9,63.0,97,30.09,7.0,Calm,Calm,-,N/A,,Scattered Clouds,0,2013-08-02 04:35:00
12:55 AM,65.1,63.5,94,30.09,10.0,WNW,3.5,-,N/A,,Scattered Clouds,300,2013-08-02 04:55:00
1:15 AM,63.0,63.0,100,30.09,1.0,Calm,Calm,-,N/A,,Mostly Cloudy,0,2013-08-02 05:15:00
1:35 AM,63.5,63.1,99,30.09,5.0,West,3.5,-,N/A,,Clear,270,2013-08-02 05:35:00
1:55 AM,62.1,62.1,100,30.07,0.2,Calm,Calm,-,N/A,Fog,Fog,0,2013-08-02 05:55:00
2:15 AM,61.7,61.7,100,30.07,0.2,Calm,Calm,-,N/A,Fog,Fog,0,2013-08-02 06:15:00
2:35 AM,62.2,62.2,100,30.07,0.2,West,4.6,-,N/A,Fog,Fog,270,2013-08-02 06:35:00
2:55 AM,62.8,62.2,98,30.07,7.0,Calm,Calm,-,N/A,,Scattered Clouds,0,2013-08-02 06:55:00
3:15 AM,62.1,61.9,99,30.07,3.0,Calm,Calm,-,N/A,,Clear,0,2013-08-02 07:15:00
3:35 AM,62.4,61.3,96,30.06,10.0,SW,3.5,-,N/A,,Clear,220,2013-08-02 07:35:00
3:55 AM,62.8,60.6,93,30.07,10.0,West,3.5,-,N/A,,Scattered Clouds,270,2013-08-02 07:55:00
4:15 AM,61.0,60.8,99,30.08,5.0,Calm,Calm,-,N/A,,Mostly Cloudy,0,2013-08-02 08:15:00
4:35 AM,61.3,60.4,97,30.08,5.0,Calm,Calm,-,N/A,,Overcast,0,2013-08-02 08:35:00
4:55 AM,61.0,61.0,100,30.07,2.0,West,3.5,-,N/A,,Mostly Cloudy,270,2013-08-02 08:55:00
5:15 AM,59.9,59.9,100,30.08,0.8,Calm,Calm,-,N/A,,Mostly Cloudy,0,2013-08-02 09:15:00
5:35 AM,60.4,60.4,100,30.08,3.0,Calm,Calm,-,N/A,,Scattered Clouds,0,2013-08-02 09:35:00
5:55 AM,61.5,61.0,98,30.09,5.0,Calm,Calm,-,N/A,,Scattered Clouds,0,2013-08-02 09:55:00
6:15 AM,61.2,61.0,99,30.09,4.0,Calm,Calm,-,N/A,,Mostly Cloudy,0,2013-08-02 10:15:00
6:35 AM,60.1,60.1,100,30.09,1.5,Calm,Calm,-,N/A,,Mostly Cloudy,0,2013-08-02 10:35:00
6:55 AM,59.9,59.9,100,30.09,0.8,Calm,Calm,-,N/A,,Mostly Cloudy,0,2013-08-02 10:55:00
7:15 AM,58.1,58.1,100,30.10,0.2,NNW,3.5,-,N/A,Fog,Fog,330,2013-08-02 11:15:00
7:35 AM,58.6,58.6,100,30.11,0.2,Calm,Calm,-,N/A,Fog,Fog,0,2013-08-02 11:35:00
7:55 AM,59.2,59.2,100,30.11,0.2,Calm,Calm,-,N/A,Fog,Fog,0,2013-08-02 11:55:00
8:15 AM,60.4,60.4,100,30.12,0.2,Calm,Calm,-,N/A,Fog,Fog,0,2013-08-02 12:15:00
8:35 AM,61.2,61.2,100,30.12,0.2,Calm,Calm,-,N/A,Fog,Fog,0,2013-08-02 12:35:00
8:55 AM,61.3,61.3,100,30.11,0.2,Calm,Calm,-,N/A,Fog,Fog,0,2013-08-02 12:55:00
9:15 AM,61.9,61.9,100,30.12,0.2,Calm,Calm,-,N/A,Fog,Fog,0,2013-08-02 13:15:00
9:35 AM,62.8,62.6,99,30.12,1.0,Calm,Calm,-,N/A,,Overcast,0,2013-08-02 13:35:00
9:55 AM,64.2,61.5,91,30.12,10.0,South,3.5,-,N/A,,Scattered Clouds,170,2013-08-02 13:55:00
10:15 AM,65.3,60.3,84,30.12,10.0,Calm,Calm,-,N/A,,Clear,0,2013-08-02 14:15:00
10:35 AM,66.0,59.9,81,30.13,10.0,WSW,3.5,-,N/A,,Scattered Clouds,240,2013-08-02 14:35:00
10:55 AM,66.6,59.9,79,30.13,10.0,Calm,Calm,-,N/A,,Clear,0,2013-08-02 14:55:00
11:15 AM,67.6,57.9,71,30.14,10.0,SW,4.6,-,N/A,,Clear,230,2013-08-02 15:15:00
11:35 AM,68.7,58.8,71,30.15,10.0,WNW,3.5,-,N/A,,Scattered Clouds,290,2013-08-02 15:35:00
11:55 AM,70.0,58.1,66,30.15,10.0,West,3.5,-,N/A,,Scattered Clouds,280,2013-08-02 15:55:00
12:15 PM,70.2,58.8,67,30.15,10.0,Calm,Calm,-,N/A,,Mostly Cloudy,0,2013-08-02 16:15:00
12:35 PM,70.9,58.1,64,30.15,10.0,Calm,Calm,-,N/A,,Scattered Clouds,0,2013-08-02 16:35:00
12:55 PM,70.2,58.5,66,30.15,10.0,Calm,Calm,-,N/A,,Overcast,0,2013-08-02 16:55:00
1:15 PM,70.9,58.1,64,30.15,10.0,West,4.6,-,N/A,,Overcast,280,2013-08-02 17:15:00
1:35 PM,72.5,58.5,61,30.15,10.0,Calm,Calm,-,N/A,,Mostly Cloudy,0,2013-08-02 17:35:00
1:55 PM,73.2,59.0,61,30.15,10.0,WSW,6.9,-,N/A,,Scattered Clouds,240,2013-08-02 17:55:00
2:15 PM,72.7,57.0,58,30.14,10.0,SW,4.6,-,N/A,,Scattered Clouds,230,2013-08-02 18:15:00
2:35 PM,73.8,57.7,57,30.14,10.0,WSW,4.6,-,N/A,,Clear,250,2013-08-02 18:35:00
2:55 PM,73.6,55.8,54,30.14,10.0,Calm,Calm,-,N/A,,Clear,0,2013-08-02 18:55:00
3:15 PM,74.1,57.0,55,30.14,10.0,West,6.9,-,N/A,,Clear,260,2013-08-02 19:15:00
3:35 PM,74.5,57.0,54,30.14,10.0,West,8.1,-,N/A,,Clear,260,2013-08-02 19:35:00
3:55 PM,74.3,54.9,51,30.14,10.0,West,3.5,-,N/A,,Clear,260,2013-08-02 19:55:00
4:15 PM,74.8,57.2,54,30.14,10.0,WSW,8.1,-,N/A,,Clear,250,2013-08-02 20:15:00
4:35 PM,75.4,58.6,56,30.13,10.0,West,4.6,-,N/A,,Clear,280,2013-08-02 20:35:00
4:55 PM,74.5,57.9,56,30.13,10.0,SSW,3.5,-,N/A,,Scattered Clouds,200,2013-08-02 20:55:00
5:15 PM,74.7,58.8,58,30.13,10.0,West,5.8,-,N/A,,Mostly Cloudy,280,2013-08-02 21:15:00
5:35 PM,73.6,59.0,60,30.13,10.0,SW,5.8,-,N/A,,Scattered Clouds,230,2013-08-02 21:35:00
5:55 PM,73.9,58.6,59,30.13,10.0,WSW,5.8,-,N/A,,Mostly Cloudy,250,2013-08-02 21:55:00
6:15 PM,74.5,60.6,62,30.12,10.0,West,4.6,-,N/A,,Mostly Cloudy,280,2013-08-02 22:15:00
6:35 PM,73.8,59.5,61,30.12,10.0,WSW,3.5,-,N/A,,Scattered Clouds,250,2013-08-02 22:35:00
6:55 PM,73.0,59.7,63,30.11,7.0,Calm,Calm,-,N/A,,Clear,0,2013-08-02 22:55:00
7:15 PM,72.3,59.2,63,30.10,10.0,SW,3.5,-,N/A,,Clear,220,2013-08-02 23:15:00
7:35 PM,71.4,60.3,68,30.11,10.0,Calm,Calm,-,N/A,,Clear,0,2013-08-02 23:35:00
7:55 PM,71.6,58.8,64,30.11,10.0,WSW,3.5,-,N/A,,Clear,250,2013-08-02 23:55:00
8:15 PM,71.1,59.0,66,30.12,10.0,Calm,Calm,-,N/A,,Clear,0,2013-08-03 00:15:00
8:35 PM,70.0,60.1,71,30.12,10.0,Calm,Calm,-,N/A,,Clear,0,2013-08-03 00:35:00
8:55 PM,68.9,61.0,76,30.12,10.0,North,3.5,-,N/A,,Clear,350,2013-08-03 00:55:00
9:15 PM,69.1,61.3,76,30.13,10.0,Calm,Calm,-,N/A,,Clear,0,2013-08-03 01:15:00
9:35 PM,68.0,61.0,78,30.13,10.0,SSE,3.5,-,N/A,,Clear,160,2013-08-03 01:35:00
9:55 PM,67.3,60.3,78,30.13,10.0,Calm,Calm,-,N/A,,Clear,0,2013-08-03 01:55:00
10:15 PM,66.6,59.7,79,30.14,10.0,SE,3.5,-,N/A,,Clear,140,2013-08-03 02:15:00
10:35 PM,66.7,58.6,75,30.14,10.0,Calm,Calm,-,N/A,,Clear,0,2013-08-03 02:35:00
10:55 PM,66.2,58.3,76,30.14,10.0,SSE,3.5,-,N/A,,Clear,160,2013-08-03 02:55:00
11:15 PM,66.0,58.1,76,30.13,10.0,South,4.6,-,N/A,,Clear,170,2013-08-03 03:15:00
11:35 PM,66.2,58.5,76,30.13,10.0,SSE,4.6,-,N/A,,Clear,160,2013-08-03 03:35:00
11:55 PM,63.9,59.9,87,30.13,10.0,NNW,4.6,-,N/A,,Clear,330,2013-08-03 03:55:00